Dewpoint
18 12 11 9 10 13 15 12 10 11 18 13 15 15 22 25 27 23 24 44 48 52 54 56 56 55 55 55 55 56 55 55 53 54 53 50 49 50 52 49 50 51 51 54
20 16 17 15 15 14 12 9 13 18 21 20 22 21 26 28 28 26 27 44 49 52 55 55 55 54 54 56 57 56 55 53 53 54 55 51 50 50 51 49 49 50 52 53
18 18 20 17 14 16 16 19 21 23 23 22 22 22 35 37 41 41 42 43 49 53 54 55 55 55 55 55 57 55 55 52 53 53 52 50 50 49 48 49 48 50 52 51
21 21 19 17 19 21 19 24 21 20 19 16 23 17 33 37 38 41 45 47 49 52 54 56 55 53 54 56 55 54 55 53 52 51 50 49 48 47 48 49 48 50 50 50
22 21 24 21 25 24 21 24 22 24 21 19 28 29 30 38 35 39 44 47 51 55 55 55 55 55 55 54 53 54 54 53 52 50 50 50 50 49 49 48 47 47 49 49
27 28 22 25 27 25 25 22 28 29 22 22 29 30 31 36 40 44 49 51 53 54 56 56 57 57 53 50 52 53 52 52 52 52 52 50 48 48 46 46 46 48 48 48
29 28 26 25 24 25 25 29 25 25 25 26 32 34 35 37 39 44 51 53 55 56 55 55 53 48 46 48 50 51 51 50 50 50 49 48 47 46 46 46 47 47 47 47
28 24 28 29 28 23 25 26 25 24 25 26 31 30 32 35 38 46 47 49 52 53 51 44 44 44 44 45 46 47 47 48 47 46 46 48 48 48 48 49 48 47 46 47
28 28 32 29 27 26 23 22 26 26 28 24 31 35 37 35 34 36 36 36 38 40 39 40 41 43 45 45 45 47 47 46 46 45 46 47 48 48 48 47 47 47 47 48
34 27 32 34 33 33 30 31 29 31 26 25 30 33 34 32 32 33 33 33 35 37 38 40 41 42 43 44 44 44 44 44 44 45 46 48 48 48 48 47 46 46 46 46
37 34 34 35 34 33 32 31 34 34 34 27 26 29 36 33 35 32 33 33 35 35 37 40 41 41 42 42 42 43 44 43 43 44 45 47 47 47 46 46 46 45 45 45
40 36 33 33 35 36 35 35 34 33 28 32 31 29 37 34 35 33 35 36 36 37 38 39 40 40 40 40 40 40 42 43 44 44 44 45 45 45 45 44 45 46 45 45
35 31 29 26 27 35 33 33 37 37 32 28 27 28 39 38 35 35 37 37 38 38 38 39 39 39 40 39 39 40 42 43 44 44 44 44 44 44 43 44 45 46 46 46
42 35 30 26 28 34 33 34 35 37 31 31 30 35 37 38 36 38 40 38 38 38 38 38 39 40 40 40 39 41 42 43 43 44 44 43 43 43 43 44 45 45 46 45
38 34 36 37 38 37 35 34 33 32 33 31 31 37 37 35 39 39 39 38 38 38 38 38 39 40 41 41 41 42 42 43 44 44 43 43 44 44 44 45 45 46 45 46
41 35 38 36 37 36 34 32 35 35 34 33 32 32 35 40 40 39 38 38 38 39 39 39 40 41 41 41 42 42 42 43 44 43 43 44 45 45 45 45 45 45 45 45
35 37 36 33 36 34 29 34 35 35 36 34 32 32 39 39 39 39 39 39 39 39 40 40 40 41 41 41 42 41 42 43 43 43 44 45 45 45 45 45 45 45 44 44
36 37 37 33 32 23 32 38 38 38 36 36 37 39 40 40 40 40 40 39 40 40 40 40 40 40 41 42 42 42 43 43 43 44 44 44 44 44 45 45 45 44 44 44
38 39 35 30 27 32 39 41 38 35 38 38 40 39 39 40 40 40 41 41 40 39 41 41 41 42 41 41 42 42 42 43 44 44 44 44 44 44 44 44 44 44 43 43
43 41 37 35 29 28 40 41 43 40 37 41 40 39 39 38 34 38 41 41 41 41 41 40 40 41 41 42 42 42 42 42 42 43 44 44 44 44 43 42 42 42 42 43
41 42 37 36 35 39 42 44 43 36 38 43 41 40 40 38 39 40 41 41 40 40 40 40 40 39 40 42 42 42 41 41 43 47 44 43 44 43 42 40 40 40 43 42
39 37 37 39 34 33 44 44 38 40 42 41 41 41 40 40 40 41 41 39 39 39 40 41 40 40 41 42 41 39 41 43 44 45 44 43 44 44 41 39 39 40 39 39
36 39 36 35 35 41 43 41 42 41 40 40 39 39 39 39 40 40 39 38 40 39 40 40 40 41 41 41 41 41 43 44 44 43 41 42 43 43 42 39 38 39 39 39
40 40 37 37 41 41 42 41 41 40 39 40 40 39 40 39 40 39 39 40 39 39 39 40 40 41 41 43 43 44 43 44 42 43 42 43 42 39 39 41 41 41 40 41
39 36 37 39 41 42 41 40 40 40 40 39 40 40 39 39 40 40 40 39 38 39 40 40 41 42 43 43 44 44 45 43 40 41 43 43 43 39 40 42 42 41 41 40
39 32 34 35 40 41 40 41 40 39 39 39 41 41 41 41 39 39 38 39 39 40 41 41 42 42 42 42 41 44 44 42 41 42 43 43 42 40 41 43 42 41 40 39
Lifted_Index
5 4 4 3 3 2 2 1 1 0 0 -0 -0 0 1 1 1 1 1 -1 -2 -2 -2 -1 -1 -1 -1 -1 -1 -0 0 1 2 3 4 5 5 6 6 6 7 8 8 8
4 4 4 4 3 2 1 1 1 0 0 0 0 0 0 0 0 1 0 -1 -1 -2 -2 -2 -2 -1 -2 -2 -1 -0 1 1 2 3 4 4 5 5 5 6 6 7 8 8
4 4 4 4 3 2 1 1 1 1 1 1 1 1 0 0 0 0 0 -1 -1 -2 -2 -2 -2 -2 -2 -2 -1 -0 1 2 3 3 4 4 4 4 4 5 6 7 8 8
3 3 3 3 2 2 2 2 1 1 1 1 1 1 0 0 0 -0 -1 -1 -2 -2 -2 -2 -2 -2 -2 -2 -1 1 2 3 3 4 4 5 5 4 5 6 6 7 8 9
3 3 2 2 2 2 2 2 1 1 1 1 1 1 0 1 0 -0 -1 -2 -2 -2 -2 -2 -2 -2 -1 -0 1 2 2 3 4 4 5 5 5 6 6 7 7 8 8 9
2 2 2 2 2 2 2 1 1 1 1 0 0 0 0 1 1 0 -1 -1 -1 -2 -2 -1 -1 -0 0 1 1 2 3 4 4 5 5 6 6 6 7 7 7 7 8 8
2 1 1 1 1 1 1 1 1 1 1 0 0 0 1 1 1 0 -0 -1 -1 -1 -0 0 1 1 1 2 2 3 4 4 5 5 5 6 6 7 7 7 7 8 8 8
2 1 1 1 1 2 1 1 1 1 1 0 0 0 0 1 1 0 0 -0 0 1 1 2 2 2 2 2 3 3 4 5 5 5 5 6 6 7 7 7 8 8 8 8
1 1 1 1 1 1 1 1 1 1 1 1 0 -0 0 0 0 1 1 1 2 2 3 2 2 2 3 3 3 4 5 6 6 6 6 6 6 7 7 8 8 9 8 8
2 2 1 1 1 1 1 1 1 0 0 0 0 -0 -0 -0 0 1 1 2 3 3 3 3 3 3 4 4 5 6 7 7 7 7 7 7 7 8 8 9 9 9 9 9
2 2 2 1 1 1 1 0 0 0 -0 -0 -0 -0 -0 0 1 1 1 2 2 3 3 3 3 4 4 5 6 7 8 9 9 9 8 8 8 9 9 9 10 9 9 9
2 2 2 1 1 1 1 0 0 -0 -0 -0 -0 -0 0 0 1 1 2 2 2 2 3 3 3 4 4 5 7 8 9 9 9 9 9 9 9 9 9 9 9 9 8 8
2 2 2 2 1 1 0 0 0 0 -0 -0 -0 0 0 1 1 1 2 2 2 2 3 3 3 4 5 6 8 9 9 9 9 9 9 9 9 8 8 8 8 8 7 7
1 1 2 2 1 1 1 0 0 0 0 0 0 0 0 1 1 1 2 2 3 3 3 3 4 5 6 7 8 9 9 9 9 9 8 8 8 7 7 7 7 7 7 7
1 1 1 1 1 1 1 1 0 0 1 1 1 1 1 1 1 1 2 2 2 3 3 4 5 6 7 8 9 9 9 9 9 8 8 7 7 7 7 7 7 6 6 6
1 1 1 1 1 1 1 1 1 1 1 1 1 1 1 2 2 2 2 2 2 3 4 5 6 6 7 8 8 9 9 8 8 7 7 7 7 7 7 7 6 6 6 6
1 1 2 2 1 1 2 1 1 1 1 1 1 1 2 2 2 2 2 2 3 4 5 5 6 7 8 8 8 8 8 8 7 7 7 7 7 7 7 7 6 6 6 6
1 1 1 1 1 1 1 1 1 1 1 1 1 1 2 2 2 2 3 4 4 5 5 6 7 8 8 8 8 8 7 7 7 6 6 6 6 6 6 6 6 7 6 6
1 1 1 1 1 1 1 1 1 1 1 1 1 1 2 2 3 3 4 5 5 6 6 7 8 8 8 8 8 7 7 6 6 6 6 6 6 6 6 6 7 7 6 6
0 0 0 0 1 0 0 0 0 0 1 1 1 1 2 3 3 4 5 5 6 7 7 8 8 8 8 8 7 7 6 6 6 6 6 6 6 6 6 7 7 7 7 7
-0 -0 -0 0 0 0 0 0 1 1 2 2 2 2 2 3 4 4 5 6 7 8 8 8 8 8 7 7 7 6 6 6 6 6 6 6 6 6 6 7 7 7 7 8
-0 -0 -0 0 1 1 1 1 1 2 2 3 3 3 3 4 5 5 6 7 8 8 8 8 8 7 7 6 6 6 6 6 6 6 5 5 5 5 6 7 8 8 8 9
-0 -0 0 1 1 2 2 2 2 3 3 3 4 4 4 5 6 7 7 8 8 8 8 7 7 7 6 6 5 5 5 6 6 6 5 5 5 5 6 7 8 9 9 9
0 0 1 1 2 3 3 3 3 3 3 4 4 5 6 6 7 8 8 8 8 8 7 7 6 6 6 5 5 5 5 6 6 6 6 5 5 6 7 8 8 9 9 9
1 1 1 2 2 2 2 2 3 3 4 5 6 6 7 7 7 8 8 8 8 7 7 6 6 5 5 5 5 4 5 5 6 6 6 6 6 7 8 8 9 9 9 9
1 1 1 2 2 2 2 2 2 3 4 5 6 7 7 7 8 8 8 9 8 7 6 6 5 5 5 5 4 4 5 5 6 6 6 7 7 8 8 9 9 9 9 9